Location: Krasnoyarskiy Pitomnik
(51.1333°N, 71.6167°E)
Time: 21:26:57
(UTC+00:00)

A-11 Canister half - Pass Details

Date: 20 April 2024
Orbit: 1525 x 1683 km, 47.3° (Epoch: 19 May)

Event Time Altitude Azimuth Distance (km) Brightness Sun altitude
Rises 08:55:05 0° 287° (WNW) 4,938 11.9 45.4°
Reaches altitude 10° 08:59:48 10° 269° (W) 3,935 11.7 45.0°
Maximum altitude 09:05:25 17° 234° (SW) 3,393 12.0 44.4°
Drops below altitude 10° 09:11:00 10° 199° (SSW) 3,873 12.0 43.8°
Sets 09:15:37 0° 180° (S) 4,826 12.1 43.3°
